Regional Weather Roundup
Issued by NWS Goodland, KS

Home | Current Version | Previous Version | Graphics & Text | Print | Product List | Glossary On
Versions: 1 2 3 4 5 6 7 8 9 10 11 12 13 14 15 16 17 18 19 20 21 22 23 24 25 26 27 28 29 30 31 32 33 34 35 36 37 38 39 40 41 42 43 44 45 46 47 48 49 50
000
ASUS43 KGLD 230908
RWRGLD

GOODLAND FORECAST AREA HOURLY WEATHER ROUNDUP
NATIONAL WEATHER SERVICE GOODLAND KS
300 AM MDT TUE MAY 23 2017

...OFFICIAL OBSERVATIONS...

CITY           SKY/WX    TMP DP  RH WIND       PRES   REMARKS
GOODLAND KS    CLEAR     41  39  93 NW10      30.13R
HILL CITY KS   CLEAR     48  45  89 NW9       30.08R
IMPERIAL NEB   CLEAR     42  38  85 NW12      30.12S
MCCOOK NEB     CLEAR     45  42  89 NW16      30.08F
AKRON CO       CLEAR     37  33  85 NW8       30.18F
BURLINGTON CO  CLEAR     41  38  89 NW12      30.15S
LIMON CO       CLOUDY    38  35  89 NW15      30.21R
$$

...UNOFFICIAL OBSERVATIONS...

CITY           SKY/WX    TMP DP  RH WIND       PRES   REMARKS
LENORA KS        N/A     45  32  60 MISG        N/A
NORTON KS      CLEAR     45  39  81 W10       30.06S
SHARON SPRINGS   N/A     43  40  89 NW12        N/A
TRENTON NEB      N/A     42  32  68 NW7         N/A
KIT CARSON CO    N/A     41  37  84 MISG        N/A
YUMA CO        FAIR      37  36  93 NW10      30.16F
$$




USA.gov is the U.S. government's official web portal to all federal, state and local government web resources and services.